EUTELSAT 172B (42741 NORAD) Tracking and Keplerian Element Data

This shows tracking and keplerian element data for the satellite.

Feedback or suggestion? Click here.




ElementValue
Catalog42741
NameEUTELSAT 172B
Epoch Orbit923
Epoch Day282.82784369
Epoch Year2019
RAAN169.1538
Inclination0.0171
Eccentricity2.52E-05
Argument of Perigee311.114
Mean Anonmoly7.9237
Mean Motion1.00271142
Decay Rate-1.9E-07
L11 42741U 17029B 19282.82784369 -.00000019 00000-0 00000-0 0 9997
L22 42741 0.0171 169.1538 0000252 311.1140 7.9237 1.00271142 9232

Live tracking and technical data element details for EUTELSAT 172B (NORAD 42741). EUTELSAT 172B can be tracked NOW for your location showing map with azimuth and elevation plus other details from your city location.

Track the satellite on the map from your city or location and see movement details for azimuth, elevation, latitude, longitude, range, height, and movement on the map or in text.







IsCatalogInMostPopularTable: catalog: 42741, numindb: 327
Update: records affected: 1



GetName: 42741 EUTELSAT 172B

Hit Count: updated at: Mon, 14 Oct 2019 01:04:06 GMT